"Pseudo-MPEC" for P12pB5R

Created 2026 Sep 5 9:35:07 UT using Find_Orb

Click here for an explanation of pseudo-MPECs

 
 Astrometry: 
     P12pB5R*0C2026 09 03.48045923 52 00.398-18 27 31.87   ~93Jo 21.52wXNEOCPF51
     P12pB5R 0C2026 09 03.49190623 52 00.532-18 27 41.32   ~93Jo 21.53wXNEOCPF51
     P12pB5R 0C2026 09 03.50352723 52 00.675-18 27 51.04   ~93Jo 21.31wXNEOCPF51

Station data:
(F51) Pan-STARRS 1, Haleakala  (N20.707234 W156.255910)  US/Hawaii.
   Observers J. Herman, T. Lowe, P. Minguez, A. Schultz, I. Smith. Measurers
   K. Chambers, T. de Boer, J. Fairlamb, H. Gao, M. Huber, C.-C. Lin, E.
   Magnier, Y. Ramanjooloo, R. Wainscoat, R. Weryk. 1.8-m Ritchey-Chrétien +
   CCD.

Orbital elements:  P12pB5R
   Perihelion 2026 Nov 16.877554 +/- 49.6 TT = 21:03:40.6 (JD 2461361.377554)
Epoch 2026 Sep  3.0 TT = JDT 2461286.5   Earth MOID: 0.2029   Ma: 0.0220
M 341.478816498 +/- 17              (J2000 ecliptic)             AutoNEOCP
n   0.247352946 +/- 0.243           Peri.  309.576294 +/- 100
a   2.513379049 +/- 1.64            Node    95.709633 +/- 53
e   0.53106592 +/- 0.248            Incl.    5.343314 +/- 4.1
P   3.98462                H 21.51  G  0.15   U 11.8  SR
q 1.178609083 +/- 0.444    Q 3.848149016 +/- 82.3
From 3 observations 2026 Sept. 3 (33.2 min); mean residual 0".03
Residuals in arcseconds: 
260903 F51  .02+  .03-    260903 F51  .03-  .05+    260903 F51  .02+  .03-    

Ephemerides (geocentric):
Date (UTC) HH   RA             Dec           delta  r     elong  mag " sig PA
---- --------  ------------   ------------  ------ ------ -----  --- --------
2026 09 05 10  23 52 37.355   -18 54 29.48  .43632 1.4290 161.6 21.2  23d  90
2026 09 05 11  23 52 38.107   -18 55 04.85  .43606 1.4287 161.6 21.2  23d  90
2026 09 05 12  23 52 38.856   -18 55 40.24  .43581 1.4285 161.6 21.2  23d  90
2026 09 05 13  23 52 39.604   -18 56 15.65  .43555 1.4282 161.6 21.2  23d  90
2026 09 05 14  23 52 40.350   -18 56 51.06  .43529 1.4280 161.6 21.2  23d  90
2026 09 05 15  23 52 41.095   -18 57 26.48  .43504 1.4277 161.7 21.2  23d  90
2026 09 05 16  23 52 41.837   -18 58 01.92  .43478 1.4275 161.7 21.2  23d  90
2026 09 05 17  23 52 42.578   -18 58 37.37  .43453 1.4272 161.7 21.2  24d  90
2026 09 05 18  23 52 43.317   -18 59 12.82  .43427 1.4270 161.7 21.2  24d  90
2026 09 05 19  23 52 44.055   -18 59 48.29  .43401 1.4267 161.7 21.2  25d  90
2026 09 05 20  23 52 44.790   -19 00 23.77  .43376 1.4265 161.7 21.2  27d  92
2026 09 05 21  23 52 45.524   -19 00 59.26  .43350 1.4262 161.7 21.2  27d  93
2026 09 05 22  23 52 46.256   -19 01 34.76  .43325 1.4260 161.7 21.2  28d  93
2026 09 05 23  23 52 46.986   -19 02 10.27  .43299 1.4258 161.7 21.2  28d  94
2026 09 06 00  23 52 47.715   -19 02 45.79  .43274 1.4255 161.7 21.2  28d  94
2026 09 06 01  23 52 48.441   -19 03 21.32  .43249 1.4253 161.7 21.2  28d  94
2026 09 06 02  23 52 49.166   -19 03 56.86  .43223 1.4250 161.7 21.2  28d  94
2026 09 06 03  23 52 49.890   -19 04 32.41  .43198 1.4248 161.7 21.2  28d  94
2026 09 06 04  23 52 50.611   -19 05 07.97  .43173 1.4245 161.8 21.2  28d  94
2026 09 06 05  23 52 51.331   -19 05 43.54  .43147 1.4243 161.8 21.2  29d  94
2026 09 06 06  23 52 52.049   -19 06 19.12  .43122 1.4240 161.8 21.2  29d  94
2026 09 06 07  23 52 52.765   -19 06 54.71  .43097 1.4238 161.8 21.2  29d  93
2026 09 06 08  23 52 53.480   -19 07 30.30  .43072 1.4235 161.8 21.2  30d  93
2026 09 06 09  23 52 54.192   -19 08 05.91  .43046 1.4233 161.8 21.2  31d  94
2026 09 06 10  23 52 54.903   -19 08 41.53  .43021 1.4231 161.8 21.2  32d  95
2026 09 06 11  23 52 55.613   -19 09 17.16  .42996 1.4228 161.8 21.2  32d  95
2026 09 06 12  23 52 56.320   -19 09 52.79  .42971 1.4226 161.8 21.2  33d  96
2026 09 06 13  23 52 57.026   -19 10 28.44  .42946 1.4223 161.8 21.2  33d  96
2026 09 06 14  23 52 57.730   -19 11 04.09  .42921 1.4221 161.8 21.2  33d  96
2026 09 06 15  23 52 58.433   -19 11 39.75  .42896 1.4218 161.8 21.2  33d  96
2026 09 06 16  23 52 59.134   -19 12 15.43  .42871 1.4216 161.8 21.2  33d  96
2026 09 06 17  23 52 59.833   -19 12 51.11  .42846 1.4213 161.8 21.2  33d  96
2026 09 06 18  23 53 00.530   -19 13 26.79  .42821 1.4211 161.8 21.2  33d  96
2026 09 06 19  23 53 01.226   -19 14 02.49  .42796 1.4209 161.9 21.2  33d  96
2026 09 06 20  23 53 01.920   -19 14 38.20  .42771 1.4206 161.9 21.2  33d  96
2026 09 06 21  23 53 02.612   -19 15 13.91  .42746 1.4204 161.9 21.2  33d  96
2026 09 06 22  23 53 03.302   -19 15 49.63  .42721 1.4201 161.9 21.2  33d  96
2026 09 06 23  23 53 03.991   -19 16 25.36  .42696 1.4199 161.9 21.2  33d  96
2026 09 07 00  23 53 04.678   -19 17 01.10  .42671 1.4196 161.9 21.2  33d  96
2026 09 07 01  23 53 05.364   -19 17 36.85  .42646 1.4194 161.9 21.2  33d  96
2026 09 07 02  23 53 06.048   -19 18 12.60  .42622 1.4192 161.9 21.2  33d  96
2026 09 07 03  23 53 06.730   -19 18 48.36  .42597 1.4189 161.9 21.2  33d  90
2026 09 07 04  23 53 07.410   -19 19 24.13  .42572 1.4187 161.9 21.2  33d  90
2026 09 07 05  23 53 08.089   -19 19 59.90  .42547 1.4184 161.9 21.2  33d  90
2026 09 07 06  23 53 08.766   -19 20 35.69  .42523 1.4182 161.9 21.2  33d  90
2026 09 07 07  23 53 09.442   -19 21 11.48  .42498 1.4179 161.9 21.2  33d  90
2026 09 07 08  23 53 10.115   -19 21 47.28  .42474 1.4177 161.9 21.2  33d  90
2026 09 07 09  23 53 10.788   -19 22 23.08  .42449 1.4175 161.9 21.2  33d  90